Temp
80 80 80 79 78 78 76 74 74 74 74 73 74 75 75 75 74 74 75 74 73 76 76 75 75 75 75 75 73 73 74 74 74 74 74 74 74 74 74 73 72 72 72 72 71 71 71 71 71 71 71 71 72 71 72 73 76 77 78 75 73 73
79 80 80 79 79 78 76 76 77 76 76 75 74 74 75 76 77 75 74 75 76 77 77 75 75 75 73 75 75 73 74 74 74 74 73 73 74 73 73 73 72 72 72 72 71 72 71 71 71 71 71 71 70 71 73 74 74 77 75 74 73 72
81 79 80 79 79 79 78 77 78 77 77 76 77 77 76 77 78 78 77 78 77 77 76 73 71 70 73 74 74 74 74 74 74 74 73 73 73 72 73 72 72 72 71 71 72 73 73 72 70 71 71 71 71 73 75 75 75 74 75 74 72 73
81 79 79 78 78 77 77 76 76 77 76 76 76 77 78 78 79 79 80 77 76 71 71 70 73 73 70 72 70 73 73 74 74 74 73 73 73 73 72 72 72 72 72 74 74 74 76 74 72 70 70 70 72 74 76 75 76 76 74 75 74 72
84 81 78 77 76 76 77 77 74 75 74 75 76 76 77 78 78 79 79 74 75 73 72 71 71 71 70 71 71 72 73 74 74 74 73 74 73 75 73 75 74 72 73 74 76 76 76 74 73 72 71 72 74 75 78 76 75 77 73 73 71 72
82 83 80 76 77 76 77 75 74 75 74 74 76 76 76 76 78 79 73 70 70 72 73 72 71 70 70 70 69 73 74 74 74 74 74 75 74 74 74 75 75 75 74 76 76 77 76 75 74 72 73 73 75 76 77 75 76 75 72 71 71 72
80 80 80 82 77 76 73 74 74 74 75 72 72 73 73 75 75 74 75 72 71 70 70 71 70 70 71 69 68 69 72 74 75 75 74 75 75 74 75 75 74 74 75 76 78 77 77 77 76 76 75 76 75 77 76 76 76 75 71 71 71 72
78 79 78 83 81 76 74 72 71 70 72 72 72 71 72 71 71 70 72 73 70 70 70 70 71 71 71 70 69 69 71 71 73 75 76 76 76 75 75 76 75 77 77 78 78 78 77 79 76 76 75 75 76 76 76 76 77 75 73 72 71 71
80 79 78 78 80 80 79 76 76 74 71 72 71 71 72 70 70 72 72 73 73 69 69 69 70 69 69 69 70 70 69 70 73 76 75 75 77 75 75 76 75 76 77 79 77 75 76 77 76 76 76 76 76 77 75 76 76 76 75 71 71 71
79 80 78 79 77 77 77 76 76 75 74 74 70 71 73 72 71 71 71 73 73 71 69 68 69 69 69 69 69 69 69 70 71 72 73 75 75 74 73 75 75 77 80 79 78 76 75 76 79 77 77 76 76 76 76 77 76 76 76 72 72 71
79 76 79 79 76 76 77 76 77 75 75 74 73 73 71 71 74 73 72 73 73 73 70 69 68 67 68 69 68 69 68 69 69 70 70 72 73 75 75 75 76 75 76 78 76 77 76 76 78 79 77 78 76 75 76 76 76 77 77 74 72 71
76 75 74 79 76 77 76 76 77 76 74 75 74 73 73 73 73 74 74 73 72 72 72 71 70 69 69 69 69 69 69 68 69 69 70 70 72 71 74 77 78 77 76 77 75 76 75 76 77 79 80 79 78 76 76 76 76 77 77 75 72 72
75 74 74 74 75 75 75 79 76 75 75 76 74 75 74 74 73 73 72 75 73 73 72 71 69 69 69 69 70 70 69 69 69 70 68 70 72 72 71 74 76 78 75 76 76 75 78 76 76 77 77 79 77 78 79 77 76 76 76 76 73 73
74 74 73 74 73 75 75 75 76 74 75 74 74 74 74 73 73 72 73 74 74 74 72 72 72 69 69 69 69 69 69 69 70 69 69 69 70 70 71 73 76 76 76 75 75 76 73 75 75 75 75 80 78 76 77 79 76 76 75 75 76 74
73 72 73 73 73 73 74 75 75 74 73 72 74 74 74 74 73 73 74 74 74 74 74 73 71 70 70 69 68 68 69 69 69 70 69 69 68 69 70 73 72 76 76 75 75 75 75 75 75 75 74 74 77 78 75 76 76 76 77 74 74 75
72 72 72 72 72 72 73 73 73 75 73 74 73 76 73 74 76 74 73 73 74 73 73 73 73 71 68 68 69 68 67 68 70 69 68 68 69 70 72 72 70 74 73 74 76 75 75 75 74 75 75 73 74 75 75 75 74 76 78 77 76 74
72 72 72 73 73 72 72 73 73 73 74 73 73 73 74 74 75 75 75 75 73 72 73 74 74 73 70 69 68 68 68 70 69 69 69 68 69 71 71 73 69 69 74 74 77 78 77 74 73 75 75 73 73 72 73 74 75 75 79 76 75 76
72 73 73 72 73 73 73 74 73 73 75 73 73 73 73 75 74 74 75 73 73 73 74 74 73 73 72 72 70 69 69 70 70 69 69 70 70 73 70 69 69 69 73 76 74 76 75 75 77 78 74 74 73 73 72 72 74 73 74 76 75 75
72 72 72 73 73 74 73 73 73 73 73 74 73 72 73 73 72 74 73 73 73 72 72 73 73 73 72 71 70 70 69 69 66 66 67 70 70 71 69 70 69 69 71 72 72 75 74 73 75 77 78 75 73 73 72 72 73 73 73 76 77 78
72 72 72 72 73 72 72 72 71 73 72 71 73 72 72 72 72 72 72 72 72 72 73 71 72 72 71 71 70 69 68 69 68 66 67 69 68 70 70 70 70 69 69 70 71 73 74 74 74 74 72 74 75 75 76 73 72 74 75 74 74 74
71 72 71 72 73 71 72 71 71 70 68 71 72 72 71 71 72 70 71 73 72 73 72 71 71 71 70 70 70 70 68 68 67 67 67 66 68 69 70 71 71 69 68 68 69 71 70 70 70 69 70 71 71 75 74 74 75 75 75 74 73 72
71 72 72 71 71 70 71 71 70 70 72 70 71 70 69 70 70 72 71 71 71 71 71 71 70 70 70 69 69 68 69 69 67 66 66 67 67 67 68 68 68 67 70 68 68 70 70 70 68 67 67 68 68 70 72 73 76 77 77 75 73 73
71 72 72 72 72 69 70 70 70 70 69 71 70 71 72 71 71 73 70 71 71 70 70 70 70 71 70 70 69 68 69 69 70 68 66 65 66 66 66 67 66 65 67 70 70 72 68 68 65 68 67 63 63 64 66 69 72 75 76 76 75 75
71 71 71 72 71 71 71 71 72 70 71 70 70 71 70 71 71 71 71 71 71 69 71 70 71 72 71 70 69 69 70 70 69 70 70 68 67 66 67 66 65 65 66 65 67 68 70 69 66 65 61 64 65 66 61 64 67 71 76 76 75 76
71 71 71 71 70 70 70 70 70 71 71 70 71 70 68 68 68 70 70 69 68 70 70 70 70 70 70 70 70 69 68 69 69 69 70 69 69 69 68 67 66 65 65 64 64 65 67 68 67 67 64 61 61 62 64 66 68 67 72 74 76 77
71 71 70 70 70 70 69 68 67 66 65 65 65 65 64 65 66 66 67 68 71 70 70 69 69 69 70 70 68 68 69 68 68 69 70 69 69 70 70 69 68 66 65 65 65 65 64 66 66 67 68 68 66 61 59 61 64 60 68 72 73 78
71 71 71 70 70 70 69 69 69 69 67 66 64 65 67 67 65 67 67 67 67 69 70 68 68 69 70 69 69 69 68 68 69 68 69 69 68 68 70 72 70 68 67 66 65 63 63 64 66 66 67 68 67 67 68 62 60 65 62 66 72 70
72 71 70 70 70 70 69 69 68 69 67 67 66 64 67 66 67 67 67 67 67 67 68 69 69 69 69 69 68 68 67 67 67 70 69 69 68 69 69 71 70 70 69 67 66 64 64 64 63 63 65 65 65 66 69 69 68 66 65 62 65 71
72 71 70 70 69 70 70 69 68 68 67 68 68 67 68 69 67 67 66 66 66 67 67 68 69 69 70 69 69 68 67 67 67 67 68 69 69 70 69 68 68 68 67 66 67 66 65 64 64 63 63 63 63 63 63 65 67 66 62 63 65 67
71 71 70 69 69 69 70 69 68 67 67 66 68 68 68 65 66 66 66 65 66 66 66 67 67 69 66 69 68 67 66 66 65 66 66 68 68 67 67 67 67 67 68 66 66 66 65 66 67 66 65 64 62 62 62 62 62 63 64 65 61 65
71 71 70 69 69 68 69 68 68 68 68 67 67 66 65 64 65 65 65 65 65 66 65 65 66 66 66 68 67 68 66 66 66 65 65 66 66 67 67 67 68 68 67 67 66 66 65 66 66 66 66 66 64 64 62 61 62 62 62 61 60 61
71 71 70 69 69 68 68 67 68 68 67 67 66 66 65 64 65 64 64 64 65 65 65 65 65 65 66 67 66 65 66 65 65 65 65 66 66 68 67 67 67 67 67 67 68 66 65 65 65 65 65 66 65 66 66 65 65 65 63 61 63 62
70 71 69 69 68 68 67 67 68 67 67 67 66 66 66 65 65 64 64 64 64 63 64 65 64 64 64 66 64 64 64 64 64 65 65 65 65 66 65 65 66 66 67 67 66 67 65 64 65 65 65 66 66 66 66 67 67 66 66 65 64 61
70 70 70 68 68 67 67 67 67 67 66 66 65 66 66 65 65 65 66 64 64 64 63 63 64 63 65 65 65 65 64 63 64 64 64 64 64 65 65 65 65 65 65 66 67 67 66 66 65 65 67 66 66 66 65 66 67 67 66 64 62 62
70 70 70 68 67 67 67 67 67 67 66 66 65 65 65 67 65 65 65 65 65 65 64 65 65 65 65 65 64 64 63 62 62 63 63 63 64 64 64 65 65 64 65 66 67 66 66 66 67 66 65 66 66 66 66 66 66 67 67 66 65 64
71 70 69 68 67 67 66 67 66 66 66 66 66 66 65 66 66 65 65 65 64 64 65 65 65 65 66 65 64 63 62 62 63 62 62 62 62 63 63 62 62 63 63 67 65 66 66 66 66 66 66 66 65 65 66 67 67 66 66 67 67 65
71 70 69 68 67 67 66 66 65 66 65 65 65 64 64 64 64 65 65 64 64 64 65 65 65 66 64 64 64 63 61 61 61 61 61 61 61 61 62 62 63 63 63 65 65 65 65 66 66 66 67 66 65 65 65 67 68 67 67 66 67 65
MSLP
1013.55 1013.51 1013.63 1013.79 1013.91 1014.03 1014.35 1014.59 1014.79 1014.95 1015.07 1015.19 1015.27 1015.39 1015.51 1015.67 1015.83 1016.03 1016.19 1016.27 1016.39 1016.51 1016.59 1016.75 1016.75 1016.95 1017.03 1017.15 1017.27 1017.43 1017.67 1017.75 1017.79 1017.95 1018.19 1018.35 1018.43 1018.55 1018.67 1018.79 1018.91 1019.03 1019.07 1019.19 1019.35 1019.43 1019.47 1019.51 1019.51 1019.51 1019.43 1019.31 1019.23 1019.39 1019.23 1019.03 1018.67 1018.63 1019.07 1019.51 1019.87 1020.19
1013.59 1013.67 1013.75 1013.91 1013.99 1014.15 1014.35 1014.47 1014.55 1014.79 1014.95 1015.11 1015.23 1015.39 1015.55 1015.63 1015.83 1016.03 1016.19 1016.31 1016.43 1016.43 1016.59 1016.87 1016.95 1017.19 1017.19 1017.11 1017.27 1017.43 1017.55 1017.75 1017.87 1018.03 1018.23 1018.43 1018.51 1018.63 1018.75 1018.83 1018.95 1019.07 1019.15 1019.19 1019.31 1019.39 1019.55 1019.59 1019.55 1019.55 1019.47 1019.43 1019.43 1019.35 1019.27 1018.99 1018.91 1018.95 1019.31 1019.67 1019.91 1020.23
1013.55 1013.71 1013.83 1013.95 1014.03 1014.11 1014.31 1014.39 1014.51 1014.75 1014.83 1014.99 1015.07 1015.27 1015.43 1015.55 1015.63 1015.87 1016.03 1016.19 1016.31 1016.43 1016.55 1016.99 1017.35 1017.67 1017.51 1017.35 1017.43 1017.35 1017.51 1017.71 1017.87 1018.03 1018.27 1018.47 1018.59 1018.67 1018.79 1018.91 1019.03 1019.11 1019.15 1019.23 1019.23 1019.19 1019.27 1019.43 1019.59 1019.55 1019.51 1019.55 1019.51 1019.31 1019.23 1019.03 1019.07 1019.03 1019.43 1019.67 1019.99 1020.19
1013.43 1013.79 1014.03 1014.23 1014.23 1014.31 1014.43 1014.55 1014.63 1014.75 1014.87 1015.07 1015.19 1015.23 1015.39 1015.51 1015.55 1015.63 1015.83 1016.07 1016.39 1016.75 1016.99 1017.07 1017.23 1017.47 1017.99 1017.63 1017.91 1017.43 1017.55 1017.67 1017.87 1018.03 1018.23 1018.43 1018.59 1018.71 1018.79 1018.95 1019.07 1019.15 1019.19 1019.15 1019.03 1018.99 1018.99 1019.15 1019.39 1019.47 1019.51 1019.47 1019.39 1019.15 1019.15 1019.11 1019.15 1019.07 1019.55 1019.79 1019.99 1020.19
1013.39 1013.63 1014.15 1014.31 1014.55 1014.63 1014.59 1014.67 1014.79 1014.91 1015.03 1015.15 1015.31 1015.35 1015.39 1015.51 1015.59 1015.63 1015.83 1016.31 1016.83 1016.99 1016.99 1017.15 1017.31 1017.47 1017.63 1017.79 1017.95 1017.79 1017.67 1017.83 1017.95 1018.19 1018.23 1018.39 1018.51 1018.63 1018.75 1018.91 1019.07 1019.19 1019.11 1018.95 1018.79 1018.67 1018.67 1018.99 1019.19 1019.35 1019.43 1019.35 1019.15 1018.95 1018.87 1018.99 1019.07 1019.19 1019.51 1019.75 1019.99 1020.15
1013.71 1013.71 1013.91 1014.31 1014.39 1014.59 1014.75 1014.99 1015.23 1015.23 1015.27 1015.35 1015.43 1015.51 1015.55 1015.63 1015.67 1015.67 1016.27 1017.23 1017.35 1017.31 1017.03 1017.19 1017.51 1017.63 1017.63 1017.67 1017.91 1017.95 1017.79 1017.83 1017.95 1018.03 1018.07 1018.27 1018.35 1018.39 1018.63 1018.67 1018.83 1019.03 1018.91 1018.59 1018.47 1018.35 1018.39 1018.75 1019.07 1019.19 1019.23 1019.11 1018.91 1018.83 1018.71 1018.87 1018.99 1019.35 1019.67 1019.87 1020.07 1020.15
1014.11 1014.07 1013.95 1013.87 1014.27 1014.59 1014.99 1015.19 1015.31 1015.35 1015.43 1015.59 1015.63 1015.71 1015.87 1015.95 1016.03 1015.95 1016.07 1016.31 1016.75 1017.23 1017.47 1017.31 1017.51 1017.75 1017.91 1017.75 1017.91 1018.07 1017.99 1017.87 1017.99 1017.95 1017.91 1018.07 1018.23 1018.35 1018.39 1018.43 1018.51 1018.63 1018.51 1018.31 1018.19 1018.11 1018.23 1018.43 1018.59 1018.83 1018.91 1018.87 1018.67 1018.59 1018.71 1018.79 1018.95 1019.27 1019.79 1019.95 1020.11 1020.19
1014.39 1014.27 1014.27 1013.83 1013.99 1014.59 1014.83 1015.19 1015.43 1015.79 1015.75 1015.75 1015.75 1015.95 1015.99 1016.23 1016.35 1016.27 1016.43 1016.27 1016.51 1017.07 1017.27 1017.27 1017.35 1017.63 1017.71 1017.79 1018.07 1018.15 1018.03 1017.91 1017.87 1017.79 1017.91 1017.87 1018.03 1018.19 1018.19 1018.19 1018.31 1018.27 1018.23 1018.15 1017.99 1018.19 1018.23 1018.27 1018.47 1018.47 1018.67 1018.71 1018.63 1018.59 1018.63 1018.71 1018.79 1018.99 1019.59 1019.83 1020.03 1020.15
1014.51 1014.51 1014.43 1014.27 1014.27 1014.31 1014.67 1015.19 1015.39 1015.75 1016.03 1015.87 1015.87 1016.07 1016.15 1016.27 1016.19 1016.23 1016.43 1016.35 1016.31 1016.75 1017.19 1017.67 1017.71 1017.55 1017.71 1017.75 1017.71 1017.79 1017.87 1017.99 1017.75 1017.71 1017.91 1017.91 1017.83 1018.03 1017.95 1017.95 1018.07 1018.07 1017.99 1017.91 1017.91 1018.11 1018.23 1018.23 1018.31 1018.43 1018.55 1018.67 1018.63 1018.63 1018.67 1018.67 1018.75 1018.91 1019.31 1019.67 1019.87 1020.07
1014.63 1014.55 1014.55 1014.47 1014.63 1014.79 1014.99 1015.27 1015.39 1015.55 1015.67 1015.71 1015.91 1016.07 1016.23 1016.31 1016.31 1016.19 1016.27 1016.35 1016.47 1016.71 1017.11 1017.63 1017.79 1017.63 1017.63 1017.63 1017.67 1017.67 1017.79 1017.87 1017.87 1017.79 1018.03 1017.95 1017.67 1017.83 1017.83 1017.79 1017.67 1017.63 1017.59 1017.63 1017.83 1018.03 1018.15 1018.23 1018.31 1018.27 1018.35 1018.55 1018.59 1018.59 1018.59 1018.75 1018.79 1018.87 1018.99 1019.51 1019.75 1019.99
1014.79 1014.79 1014.59 1014.75 1014.91 1015.15 1015.23 1015.35 1015.39 1015.55 1015.67 1015.83 1015.83 1015.91 1016.07 1016.11 1015.99 1015.99 1016.15 1016.27 1016.43 1016.51 1016.91 1017.31 1017.79 1018.15 1017.87 1017.87 1017.91 1017.71 1017.43 1017.47 1017.79 1018.11 1018.67 1018.27 1017.71 1017.75 1017.71 1017.67 1017.59 1017.59 1017.59 1017.59 1017.63 1017.71 1017.99 1018.23 1018.19 1018.19 1018.23 1018.43 1018.55 1018.59 1018.67 1018.71 1018.83 1018.79 1018.79 1019.27 1019.63 1019.87
1015.11 1015.03 1014.95 1014.91 1015.11 1015.23 1015.31 1015.47 1015.51 1015.47 1015.71 1015.87 1015.79 1015.87 1015.95 1016.07 1016.19 1016.07 1016.15 1016.43 1016.59 1016.63 1016.79 1017.15 1017.55 1017.75 1017.51 1017.39 1017.79 1017.87 1017.51 1017.51 1017.63 1018.03 1018.55 1018.63 1017.71 1018.03 1017.91 1017.55 1017.47 1017.51 1017.47 1017.39 1017.47 1017.67 1017.87 1018.15 1018.35 1018.19 1018.11 1018.23 1018.35 1018.63 1018.71 1018.71 1018.87 1018.83 1018.75 1018.99 1019.43 1019.75
1015.15 1015.19 1015.23 1015.31 1015.35 1015.43 1015.39 1015.39 1015.55 1015.67 1015.87 1015.87 1015.83 1015.87 1016.03 1016.15 1016.31 1016.31 1016.27 1016.31 1016.47 1016.67 1016.79 1016.91 1017.31 1017.63 1017.59 1017.51 1017.47 1017.67 1017.67 1017.59 1017.71 1018.03 1018.43 1018.43 1018.35 1017.95 1017.87 1017.79 1017.47 1017.47 1017.59 1017.47 1017.43 1017.71 1017.83 1018.11 1018.35 1018.35 1018.19 1018.15 1018.23 1018.47 1018.55 1018.67 1018.79 1018.79 1018.79 1018.83 1019.19 1019.43
1015.31 1015.43 1015.47 1015.47 1015.43 1015.51 1015.59 1015.55 1015.55 1015.75 1015.87 1015.87 1015.79 1015.83 1016.03 1016.11 1016.19 1016.27 1016.31 1016.35 1016.47 1016.59 1016.71 1016.79 1016.99 1017.39 1017.55 1017.59 1017.79 1017.99 1018.27 1018.35 1018.31 1018.31 1018.51 1018.55 1018.15 1018.19 1018.03 1018.03 1017.79 1017.71 1017.83 1017.71 1017.67 1017.79 1018.07 1018.35 1018.39 1018.39 1018.43 1018.23 1018.15 1018.27 1018.43 1018.67 1018.67 1018.79 1018.75 1018.67 1018.71 1019.15
1015.39 1015.55 1015.63 1015.71 1015.71 1015.79 1015.71 1015.63 1015.75 1015.87 1015.99 1015.95 1015.87 1015.83 1015.91 1015.91 1016.03 1016.07 1016.07 1016.19 1016.35 1016.51 1016.51 1016.55 1016.75 1017.03 1017.19 1017.35 1017.59 1017.91 1018.11 1018.43 1018.67 1018.83 1019.19 1018.91 1018.27 1018.19 1018.15 1017.91 1017.91 1017.83 1017.79 1017.75 1017.75 1017.75 1018.03 1018.27 1018.51 1018.67 1018.63 1018.39 1018.43 1018.23 1018.27 1018.55 1018.59 1018.67 1018.71 1018.63 1018.55 1018.75
1015.55 1015.71 1015.79 1015.83 1015.87 1015.91 1015.87 1015.87 1015.99 1015.99 1016.07 1015.99 1015.95 1015.87 1015.91 1015.95 1015.79 1015.83 1015.99 1016.03 1016.27 1016.55 1016.67 1016.59 1016.59 1016.83 1017.23 1017.43 1017.51 1017.71 1017.79 1017.79 1018.03 1018.43 1018.91 1019.07 1018.55 1018.39 1018.31 1018.11 1017.79 1017.99 1018.19 1017.99 1017.75 1017.75 1017.83 1018.23 1018.39 1018.63 1018.63 1018.55 1018.39 1018.39 1018.43 1018.39 1018.55 1018.59 1018.55 1018.55 1018.63 1018.59
1015.67 1015.75 1015.83 1015.83 1015.91 1015.95 1015.91 1015.91 1016.03 1016.03 1016.07 1016.07 1016.03 1016.07 1015.95 1015.95 1015.91 1015.79 1015.83 1015.99 1016.23 1016.47 1016.63 1016.59 1016.51 1016.67 1017.03 1017.23 1017.35 1017.51 1017.79 1017.91 1018.03 1018.19 1018.63 1018.71 1018.39 1017.99 1018.31 1018.07 1018.15 1018.07 1018.07 1017.95 1017.83 1017.79 1017.79 1017.99 1018.27 1018.47 1018.55 1018.63 1018.47 1018.35 1018.51 1018.43 1018.39 1018.47 1018.39 1018.55 1018.59 1018.59
1015.55 1015.63 1015.71 1015.83 1015.83 1015.83 1015.83 1015.79 1015.87 1015.95 1015.91 1016.07 1016.15 1016.19 1016.15 1015.95 1015.95 1015.95 1015.95 1016.19 1016.27 1016.43 1016.51 1016.51 1016.55 1016.67 1016.91 1016.99 1017.23 1017.47 1017.51 1017.63 1017.75 1017.87 1017.63 1017.75 1017.87 1017.79 1017.95 1018.03 1018.07 1017.83 1017.79 1017.67 1017.83 1017.83 1018.03 1018.07 1018.03 1018.15 1018.39 1018.47 1018.47 1018.43 1018.39 1018.35 1018.23 1018.27 1018.39 1018.43 1018.43 1018.47
1015.55 1015.63 1015.71 1015.71 1015.67 1015.63 1015.67 1015.67 1015.67 1015.79 1015.91 1015.95 1016.07 1016.15 1016.11 1016.11 1016.19 1016.15 1016.23 1016.27 1016.35 1016.51 1016.43 1016.43 1016.51 1016.75 1017.03 1017.23 1017.31 1017.43 1017.55 1017.51 1017.51 1017.67 1017.75 1017.79 1017.83 1017.75 1017.71 1017.87 1017.91 1017.83 1017.63 1017.67 1017.87 1017.71 1017.71 1018.07 1018.47 1018.31 1018.07 1018.19 1018.19 1018.31 1018.31 1018.19 1018.11 1018.19 1018.31 1018.27 1018.19 1018.19
1015.51 1015.55 1015.55 1015.51 1015.55 1015.79 1015.79 1015.79 1016.03 1015.95 1016.03 1016.11 1016.11 1016.27 1016.31 1016.35 1016.35 1016.43 1016.47 1016.47 1016.51 1016.51 1016.55 1016.71 1016.79 1016.79 1016.91 1017.03 1017.27 1017.47 1017.55 1017.43 1017.43 1017.71 1017.87 1017.79 1017.79 1017.63 1017.63 1017.75 1017.83 1017.75 1017.83 1017.75 1017.67 1017.83 1017.75 1017.95 1017.99 1018.11 1017.91 1017.83 1017.87 1017.87 1018.15 1018.15 1018.11 1018.11 1018.15 1018.15 1018.07 1017.95
1015.43 1015.39 1015.47 1015.51 1015.43 1015.59 1015.83 1015.95 1016.03 1016.23 1016.31 1016.23 1016.31 1016.27 1016.43 1016.55 1016.59 1016.63 1016.67 1016.67 1016.67 1016.59 1016.67 1016.75 1016.75 1016.79 1016.95 1017.03 1017.11 1017.15 1017.23 1017.31 1017.27 1017.47 1017.71 1017.83 1017.67 1017.59 1017.51 1017.55 1017.55 1017.55 1017.71 1017.99 1017.95 1017.83 1018.07 1018.39 1018.83 1018.95 1018.43 1018.11 1017.83 1017.59 1017.71 1017.95 1018.11 1018.07 1017.99 1017.83 1017.79 1017.99
1015.31 1015.35 1015.31 1015.35 1015.59 1015.75 1015.83 1016.03 1016.19 1016.35 1016.23 1016.31 1016.59 1016.67 1016.71 1016.67 1016.59 1016.51 1016.67 1016.67 1016.75 1016.63 1016.71 1016.79 1016.83 1016.91 1016.99 1017.07 1017.19 1017.23 1017.23 1017.19 1017.27 1017.43 1017.51 1017.51 1017.55 1017.63 1017.75 1017.83 1017.95 1017.99 1017.75 1017.95 1018.15 1017.91 1018.03 1018.55 1019.19 1019.39 1019.47 1019.15 1018.47 1017.95 1017.63 1017.75 1017.91 1017.91 1017.79 1017.71 1017.71 1017.87
1015.23 1015.31 1015.31 1015.35 1015.55 1015.95 1015.99 1016.03 1016.11 1016.31 1016.31 1016.35 1016.39 1016.43 1016.43 1016.51 1016.47 1016.47 1016.51 1016.59 1016.59 1016.67 1016.87 1016.99 1016.95 1016.91 1017.03 1017.07 1017.19 1017.23 1017.23 1017.11 1017.07 1017.23 1017.51 1017.63 1017.59 1017.63 1017.71 1017.87 1018.07 1018.31 1018.31 1017.87 1017.91 1017.75 1018.03 1018.43 1019.51 1019.15 1019.11 1019.95 1020.03 1019.43 1018.51 1018.15 1017.79 1017.63 1017.59 1017.51 1017.55 1017.75
1015.11 1015.19 1015.35 1015.39 1015.47 1015.63 1015.87 1015.99 1016.03 1016.15 1016.23 1016.19 1016.47 1016.39 1016.35 1016.27 1016.31 1016.43 1016.55 1016.51 1016.55 1016.75 1016.87 1016.99 1016.99 1016.95 1016.99 1017.07 1017.11 1017.15 1017.11 1017.11 1017.11 1017.03 1017.19 1017.43 1017.59 1017.67 1017.67 1017.79 1018.15 1018.31 1018.35 1018.59 1018.19 1018.11 1017.87 1018.27 1018.83 1019.43 1019.99 1019.59 1019.15 1018.99 1019.71 1019.31 1018.59 1017.75 1017.23 1017.31 1017.35 1017.47
1014.91 1015.11 1015.27 1015.35 1015.51 1015.67 1015.95 1016.15 1016.19 1016.23 1016.19 1016.35 1016.15 1016.31 1016.51 1016.67 1016.59 1016.47 1016.51 1016.59 1016.71 1016.75 1016.87 1016.91 1016.95 1017.03 1017.11 1017.15 1017.15 1017.23 1017.31 1017.31 1017.23 1017.15 1017.15 1017.27 1017.27 1017.23 1017.39 1017.59 1017.75 1018.07 1018.27 1018.31 1018.39 1018.15 1018.11 1018.15 1018.39 1018.39 1019.07 1019.47 1019.47 1019.39 1019.15 1018.83 1018.59 1018.35 1017.43 1017.59 1017.27 1017.23
1014.67 1014.91 1015.19 1015.35 1015.47 1015.71 1015.99 1016.19 1016.39 1016.63 1016.91 1016.91 1016.79 1016.83 1017.11 1017.07 1016.91 1016.91 1016.91 1016.71 1016.63 1016.71 1016.91 1017.07 1017.07 1017.11 1017.11 1017.19 1017.31 1017.27 1017.31 1017.43 1017.43 1017.23 1017.19 1017.23 1017.23 1017.15 1017.11 1017.23 1017.43 1017.63 1017.87 1017.87 1018.03 1018.27 1018.47 1018.15 1018.11 1018.23 1018.15 1018.35 1018.51 1019.39 1020.03 1019.95 1019.63 1019.75 1017.75 1017.35 1017.31 1017.15
1014.55 1014.83 1015.07 1015.27 1015.35 1015.59 1015.79 1015.83 1015.95 1016.07 1016.11 1016.31 1016.71 1016.87 1016.79 1016.79 1016.83 1016.79 1016.75 1016.91 1016.95 1016.79 1016.83 1016.99 1017.07 1016.99 1017.03 1017.07 1017.15 1017.19 1017.27 1017.31 1017.31 1017.31 1017.15 1017.11 1017.23 1017.23 1017.15 1016.99 1016.83 1017.23 1017.39 1017.47 1017.75 1018.19 1018.23 1018.23 1018.15 1018.19 1018.15 1018.11 1018.19 1018.35 1018.91 1019.99 1020.15 1018.95 1019.35 1018.27 1017.55 1017.39
1014.31 1014.63 1014.91 1015.15 1015.35 1015.39 1015.63 1015.75 1015.91 1016.03 1016.11 1016.27 1016.47 1016.87 1016.79 1016.83 1016.79 1016.79 1016.91 1016.99 1016.95 1016.95 1016.87 1016.83 1016.87 1017.03 1017.03 1017.03 1017.03 1017.15 1017.19 1017.19 1017.23 1017.19 1017.11 1017.03 1017.03 1016.91 1016.87 1016.75 1016.75 1016.79 1016.99 1017.15 1017.35 1017.67 1017.83 1017.87 1018.23 1018.15 1017.79 1017.99 1018.03 1018.19 1018.55 1018.79 1018.99 1019.23 1019.15 1019.39 1018.79 1017.47
1014.11 1014.43 1014.75 1014.99 1015.23 1015.31 1015.35 1015.59 1015.87 1015.99 1016.19 1016.19 1016.35 1016.55 1016.55 1016.59 1016.79 1016.83 1017.03 1017.03 1017.07 1017.03 1016.99 1016.99 1016.95 1016.95 1016.95 1016.95 1017.03 1017.07 1017.07 1017.07 1017.07 1017.03 1016.99 1016.95 1016.83 1016.71 1016.75 1016.79 1016.75 1016.71 1016.91 1016.99 1016.95 1017.07 1017.35 1017.55 1017.63 1017.71 1017.79 1017.87 1017.99 1018.31 1018.31 1018.47 1018.55 1018.87 1019.47 1019.15 1018.59 1018.23
1014.03 1014.23 1014.51 1014.83 1015.07 1015.19 1015.23 1015.39 1015.75 1015.91 1016.07 1016.27 1016.27 1016.31 1016.31 1016.67 1016.79 1016.87 1016.99 1017.11 1017.07 1017.11 1017.03 1017.07 1017.07 1017.07 1017.11 1016.99 1017.07 1017.11 1017.15 1017.19 1017.19 1017.07 1017.03 1016.95 1016.87 1016.83 1016.75 1016.67 1016.63 1016.63 1016.55 1016.79 1016.83 1016.83 1016.95 1017.07 1017.15 1017.27 1017.31 1017.47 1017.95 1018.11 1018.43 1018.55 1018.55 1018.71 1018.71 1018.71 1019.19 1018.55
1013.79 1013.99 1014.35 1014.71 1014.95 1015.19 1015.19 1015.35 1015.59 1015.71 1015.91 1016.07 1016.19 1016.35 1016.55 1016.79 1016.79 1016.91 1016.99 1017.03 1017.07 1017.03 1017.03 1017.07 1017.07 1017.11 1017.15 1017.15 1017.15 1017.11 1017.19 1017.19 1017.15 1017.11 1017.11 1016.99 1016.79 1016.71 1016.67 1016.59 1016.43 1016.31 1016.35 1016.43 1016.47 1016.59 1016.71 1016.75 1016.87 1016.95 1017.07 1017.19 1017.35 1017.51 1017.75 1018.07 1018.11 1018.39 1018.55 1018.51 1018.67 1018.47
1013.67 1013.87 1014.23 1014.55 1014.83 1015.07 1015.19 1015.31 1015.39 1015.59 1015.83 1015.91 1016.11 1016.31 1016.43 1016.67 1016.71 1016.91 1016.95 1017.03 1016.99 1017.03 1017.07 1017.07 1017.15 1017.15 1017.15 1017.11 1017.15 1017.23 1017.19 1017.19 1017.19 1017.11 1016.99 1016.87 1016.71 1016.55 1016.51 1016.47 1016.35 1016.23 1016.15 1016.03 1016.03 1016.27 1016.51 1016.55 1016.59 1016.67 1016.71 1016.75 1016.87 1016.91 1017.11 1017.39 1017.39 1017.55 1017.87 1017.99 1017.99 1018.07
1013.63 1013.67 1014.07 1014.39 1014.71 1014.95 1015.15 1015.23 1015.31 1015.51 1015.71 1015.79 1016.03 1016.15 1016.23 1016.39 1016.51 1016.75 1016.83 1016.95 1016.91 1017.07 1016.99 1017.11 1017.11 1017.19 1017.15 1017.23 1017.27 1017.35 1017.31 1017.27 1017.19 1017.07 1016.95 1016.83 1016.75 1016.63 1016.59 1016.59 1016.43 1016.23 1016.03 1015.95 1015.87 1015.87 1016.07 1016.31 1016.31 1016.39 1016.43 1016.27 1016.43 1016.59 1016.63 1016.59 1016.79 1017.03 1017.15 1017.23 1017.47 1017.87
1013.39 1013.47 1013.87 1014.27 1014.55 1014.83 1015.03 1015.11 1015.19 1015.39 1015.59 1015.75 1015.95 1016.03 1016.11 1016.27 1016.39 1016.51 1016.55 1016.71 1016.87 1016.95 1016.99 1017.03 1017.07 1017.19 1017.15 1017.19 1017.27 1017.31 1017.35 1017.35 1017.27 1017.19 1017.07 1016.95 1016.83 1016.75 1016.67 1016.59 1016.43 1016.31 1016.15 1015.91 1015.71 1015.63 1015.67 1015.75 1015.91 1016.07 1015.99 1015.99 1016.15 1016.31 1016.39 1016.35 1016.39 1016.59 1016.83 1017.15 1017.35 1017.47
1013.15 1013.35 1013.67 1014.11 1014.43 1014.71 1014.91 1015.03 1015.15 1015.31 1015.47 1015.63 1015.83 1015.99 1016.07 1016.07 1016.23 1016.43 1016.47 1016.59 1016.67 1016.75 1016.91 1016.91 1016.95 1016.95 1016.99 1017.15 1017.27 1017.39 1017.43 1017.47 1017.43 1017.35 1017.27 1017.15 1016.99 1016.87 1016.71 1016.59 1016.51 1016.43 1016.23 1015.99 1015.79 1015.67 1015.55 1015.51 1015.59 1015.71 1015.99 1015.87 1015.83 1015.95 1015.99 1016.03 1016.03 1016.07 1016.23 1016.47 1016.71 1016.91
1012.75 1013.03 1013.39 1013.91 1014.27 1014.51 1014.71 1014.87 1015.03 1015.27 1015.39 1015.51 1015.63 1015.83 1015.95 1015.95 1016.07 1016.23 1016.39 1016.51 1016.63 1016.67 1016.75 1016.79 1016.79 1016.87 1016.95 1017.11 1017.27 1017.39 1017.43 1017.47 1017.39 1017.39 1017.31 1017.23 1017.11 1016.99 1016.83 1016.71 1016.59 1016.51 1016.39 1016.03 1015.83 1015.67 1015.51 1015.43 1015.39 1015.35 1015.39 1015.43 1015.71 1015.75 1015.59 1015.55 1015.67 1015.71 1015.83 1015.91 1016.15 1016.43
1012.47 1012.71 1013.15 1013.63 1014.03 1014.27 1014.51 1014.75 1014.99 1015.15 1015.31 1015.43 1015.59 1015.75 1015.91 1015.99 1016.11 1016.27 1016.39 1016.51 1016.59 1016.63 1016.63 1016.71 1016.79 1016.83 1016.99 1017.11 1017.23 1017.35 1017.39 1017.43 1017.43 1017.43 1017.43 1017.39 1017.31 1017.19 1017.07 1016.95 1016.75 1016.55 1016.35 1016.07 1015.91 1015.71 1015.47 1015.35 1015.23 1015.11 1015.07 1015.15 1015.35 1015.43 1015.59 1015.43 1015.27 1015.31 1015.43 1015.63 1015.79 1015.99
Wind_Speed
3 3 3 3 3 4 6 8 7 7 6 6 7 7 8 8 7 9 8 8 8 7 6 5 7 6 11 9 12 13 10 11 12 12 11 10 10 8 8 8 7 8 9 8 7 6 6 6 5 4 4 5 6 3 5 5 4 3 9 8 8 8
4 2 2 3 2 2 5 5 5 6 6 6 5 6 7 7 8 7 8 7 6 3 4 3 3 4 6 9 11 14 12 10 11 12 11 9 8 7 6 5 5 6 6 8 9 5 4 4 5 5 5 5 2 4 5 3 4 4 10 7 7 9
7 5 2 3 1 1 4 3 4 4 4 5 6 7 6 7 7 7 7 7 4 3 1 3 4 2 1 5 6 13 13 11 10 11 10 9 8 7 6 4 3 3 5 7 7 5 6 5 3 6 5 3 3 5 5 0 0 2 9 8 7 13
8 7 4 3 3 2 3 2 2 3 3 3 2 4 5 5 5 6 8 5 3 6 4 1 3 9 2 3 4 11 12 13 11 10 11 8 8 7 7 5 3 1 3 5 6 6 6 6 5 4 3 4 5 6 4 1 2 2 8 10 8 13
4 5 7 4 2 2 1 3 2 3 2 1 2 3 3 4 4 4 4 4 4 5 3 2 4 3 3 2 4 3 7 6 6 5 9 6 6 6 5 5 3 3 5 6 7 7 6 7 6 5 4 6 7 6 4 4 3 3 8 7 8 13
3 4 4 6 5 2 2 3 3 1 1 1 1 2 2 2 3 3 8 5 1 2 4 3 3 4 4 2 2 4 6 5 5 7 7 5 6 6 6 6 6 6 7 8 7 6 5 8 7 6 6 6 7 5 3 4 4 6 6 7 8 12
2 1 4 6 6 5 4 3 2 1 2 1 0 2 3 4 4 4 5 6 5 3 1 3 4 4 4 3 2 2 2 4 6 6 7 5 6 6 6 7 7 7 8 7 6 4 3 6 5 7 6 6 5 2 4 3 3 6 6 7 8 13
3 4 3 6 4 8 5 3 2 3 3 1 2 2 1 3 2 1 2 4 5 3 4 3 3 3 2 2 3 2 2 2 5 5 6 6 7 7 7 6 6 7 7 7 3 5 4 4 3 2 3 3 2 3 3 3 6 4 9 7 7 11
3 1 4 4 2 5 5 5 3 5 3 2 2 2 2 1 1 1 2 1 4 4 4 2 1 4 1 4 5 5 6 4 6 5 7 7 6 8 7 8 8 8 8 6 3 3 4 3 5 4 3 3 3 2 3 1 1 5 7 7 7 9
4 2 2 1 5 5 3 4 4 4 3 3 3 2 2 2 2 2 1 2 3 4 4 5 3 2 5 3 4 3 3 4 5 3 4 8 6 7 5 5 2 4 5 3 5 3 3 3 5 4 5 2 2 2 2 1 2 2 7 7 7 8
5 5 3 5 3 4 2 3 3 5 4 3 2 1 1 2 1 0 0 0 3 4 4 3 3 5 2 2 1 2 6 4 4 3 6 4 1 5 6 5 6 4 2 4 4 6 3 2 2 5 4 4 3 1 1 4 3 4 4 9 7 7
4 3 5 4 2 3 4 4 2 3 6 4 1 1 2 2 2 2 0 1 2 3 4 5 5 5 5 4 5 4 4 4 4 3 5 5 1 2 5 4 7 4 3 3 2 5 3 2 2 2 4 5 4 3 3 2 3 4 4 7 8 8
3 2 3 4 3 3 3 4 2 4 3 2 4 2 2 2 3 1 3 2 3 3 2 3 6 1 1 2 2 4 3 3 2 2 5 2 2 3 3 5 4 3 2 2 3 2 3 4 1 1 3 3 4 4 4 3 3 3 3 3 9 8
4 5 4 3 4 4 1 2 3 4 3 3 1 2 4 2 2 1 1 0 2 3 3 3 2 4 2 2 1 1 1 3 2 1 2 4 3 2 3 6 4 7 5 1 2 1 1 1 1 1 2 5 5 4 4 3 3 3 4 4 4 9
4 4 4 4 4 3 4 5 5 4 3 2 1 1 3 4 5 3 2 1 3 2 2 2 4 4 3 1 1 2 3 4 1 2 3 6 5 3 3 3 3 3 4 2 4 3 3 2 2 2 3 2 3 4 6 5 4 4 4 3 3 3
5 4 4 3 3 2 2 2 4 3 2 1 2 2 1 4 3 5 4 2 3 4 2 0 1 4 2 2 1 1 2 2 2 4 3 3 7 5 2 1 1 2 1 2 2 3 3 2 3 2 3 3 5 1 4 5 3 4 4 4 3 5
5 5 4 4 4 2 2 2 4 2 2 2 2 3 2 2 3 2 2 3 3 3 1 1 1 4 3 3 4 2 1 1 2 1 4 4 6 5 0 2 1 2 4 1 2 5 6 4 3 4 2 3 3 3 3 5 5 4 5 5 5 5
5 4 3 3 3 4 2 3 4 3 3 5 2 3 3 2 2 3 1 5 3 3 2 1 3 3 2 2 3 2 1 1 4 3 4 4 4 3 2 3 2 2 4 3 4 4 2 1 4 6 5 4 3 3 3 3 5 5 5 5 5 4
4 3 3 3 3 3 4 4 4 4 3 2 4 3 2 2 5 3 4 4 4 2 2 5 3 2 4 3 3 3 1 2 2 2 2 4 3 3 4 3 2 3 4 3 3 4 2 2 5 6 6 8 4 5 4 6 4 5 6 6 6 7
4 4 5 4 6 7 5 3 3 1 3 2 4 4 2 3 3 5 4 3 2 2 3 3 3 3 3 2 2 1 1 1 1 2 3 5 3 3 2 4 5 5 2 3 3 3 4 5 6 6 4 3 7 6 6 6 4 4 6 7 5 5
4 4 5 5 2 4 2 4 3 2 2 3 5 2 4 5 2 4 2 3 2 3 3 3 2 3 3 4 3 0 2 1 1 1 1 2 3 4 5 3 1 2 4 3 3 2 2 3 5 6 2 3 3 5 5 7 6 6 6 6 5 4
5 4 1 4 4 2 3 2 2 3 2 5 5 3 4 3 1 3 1 1 0 2 3 1 2 2 2 2 2 3 4 1 3 2 2 1 2 3 4 4 2 2 2 4 5 2 1 0 2 3 2 3 3 2 5 6 8 8 8 6 5 6
5 3 2 3 4 5 3 2 3 2 4 3 4 1 3 3 1 1 4 2 0 2 3 3 2 1 1 1 1 1 2 3 2 3 3 2 2 3 5 6 3 3 4 5 4 3 5 5 3 3 1 2 5 3 3 4 4 7 8 6 6 7
6 4 5 3 3 4 4 3 2 2 2 2 4 5 5 3 2 2 2 2 2 2 1 0 1 3 2 2 3 2 2 2 3 2 1 4 4 4 3 4 5 8 6 5 4 4 3 4 4 2 4 3 3 5 2 6 7 7 8 8 7 8
7 6 5 3 5 4 4 3 2 1 2 1 0 3 3 3 1 2 0 2 3 1 2 1 2 1 2 2 1 2 3 3 3 3 2 2 2 3 6 6 8 8 10 7 7 4 2 4 4 4 3 1 2 2 4 1 6 5 6 7 8 8
7 6 7 5 5 5 5 5 4 4 5 6 3 3 3 2 2 2 3 2 1 2 1 1 1 2 2 1 2 2 2 2 4 3 2 2 2 2 2 3 7 8 8 9 9 7 6 4 6 6 7 5 2 3 2 5 6 3 2 5 5 8
7 6 7 5 5 5 5 4 3 2 1 1 5 3 2 2 1 2 2 2 3 1 1 3 2 2 1 2 2 1 2 2 3 4 4 2 2 2 3 5 3 7 8 8 8 9 10 7 5 5 7 7 6 5 5 2 4 4 1 3 4 4
8 6 7 6 6 5 4 3 3 1 1 2 3 4 3 3 1 1 2 0 1 1 2 3 1 1 2 3 3 3 3 3 3 4 4 3 2 2 3 3 4 4 7 7 9 9 9 7 9 6 7 8 8 6 6 7 9 7 6 2 6 6
8 8 8 8 6 5 4 5 4 2 3 4 3 4 3 3 3 3 1 2 1 2 1 0 2 2 0 2 1 2 3 3 3 3 3 4 4 3 3 3 3 3 5 8 8 8 7 8 8 7 6 7 6 7 8 8 6 4 5 5 4 5
8 8 8 8 7 5 4 6 4 4 3 5 3 3 2 4 2 2 2 2 2 2 0 2 1 0 3 2 1 3 2 3 5 6 6 6 4 5 5 4 5 6 4 5 7 8 9 8 8 6 6 6 8 7 7 7 8 6 7 6 6 6
9 8 9 8 7 6 4 5 4 3 3 3 3 4 2 3 3 2 2 2 1 1 1 1 1 2 2 1 1 1 1 3 3 4 5 6 5 4 5 5 4 4 4 5 5 7 8 8 7 7 8 8 8 9 10 11 9 6 6 5 5 8
9 8 9 8 7 7 5 5 4 4 4 3 3 2 2 5 3 3 1 2 2 1 2 1 1 0 2 1 1 1 2 2 3 4 4 4 5 5 4 5 6 5 5 4 4 6 8 9 10 8 9 8 9 9 8 8 7 7 7 8 6 7
10 9 10 8 7 7 6 5 4 5 4 3 4 3 3 2 3 2 3 3 2 1 1 3 3 1 1 0 0 2 2 3 3 3 3 4 4 5 4 5 6 7 7 6 5 3 6 8 9 9 9 7 8 8 9 8 8 7 6 5 5 5
10 9 9 9 8 7 6 5 5 5 5 4 4 3 2 3 3 3 3 3 2 2 1 1 1 1 0 0 1 1 2 3 4 4 5 4 5 4 5 6 6 6 7 7 6 7 6 5 7 8 8 8 9 9 9 8 8 8 7 6 6 6
10 11 9 9 7 7 6 5 5 5 4 4 4 4 3 3 4 3 2 2 2 1 2 2 2 2 2 2 1 2 2 3 3 4 4 5 5 5 5 5 5 6 7 7 8 7 6 5 6 8 10 9 9 9 9 9 10 9 8 8 7 6
10 11 10 9 8 7 6 5 5 5 5 4 4 4 4 2 3 3 2 2 2 2 2 1 1 1 1 1 1 2 2 3 3 3 4 5 5 5 5 5 5 6 8 7 7 8 8 8 7 7 8 8 7 9 9 10 10 10 10 10 9 8
10 9 10 10 8 7 6 6 6 5 5 4 4 4 4 3 3 3 2 2 2 2 2 2 1 0 1 1 1 1 2 3 3 3 4 5 6 6 6 6 6 7 7 7 8 8 7 7 7 8 7 9 10 10 11 10 10 11 11 11 11 10
Wind_Direction
157 148 169 148 173 159 126 124 112 96 118 131 138 150 148 151 145 140 147 161 162 165 169 157 174 166 151 145 139 142 147 135 132 137 138 140 135 138 144 148 155 162 161 158 148 149 160 161 159 160 198 255 288 305 279 287 290 7 98 100 107 118
124 116 158 121 144 127 126 151 147 140 150 157 153 155 171 176 174 155 172 164 175 172 163 132 186 175 172 148 144 143 142 140 132 136 148 148 140 132 135 141 162 171 160 153 151 158 163 176 171 170 201 234 272 268 279 263 28 331 97 101 108 132
125 128 147 114 58 127 143 158 146 157 157 175 179 182 187 198 191 176 181 174 181 144 104 93 152 191 336 141 140 144 142 145 138 140 146 150 146 141 130 120 135 177 174 163 172 193 168 164 178 191 210 226 251 246 252 283 307 336 111 115 120 141
126 131 112 66 69 57 103 105 117 155 177 157 219 198 204 207 203 186 191 164 116 70 83 98 50 109 31 69 206 146 150 148 149 151 150 151 156 156 140 142 155 197 225 206 204 206 172 155 168 170 209 222 236 243 205 162 226 210 108 118 131 144
43 122 123 120 103 60 86 160 70 50 43 139 210 240 223 208 220 193 170 42 44 118 148 168 112 114 101 208 180 188 149 153 153 157 160 167 165 167 171 180 180 209 236 225 219 203 173 144 155 168 190 222 236 243 170 158 238 82 123 126 140 144
27 35 125 143 144 116 106 27 63 119 104 52 277 251 253 292 230 191 88 106 160 140 153 131 125 131 166 162 136 216 176 158 173 169 181 176 187 161 184 185 193 198 230 232 229 173 158 143 162 169 190 218 230 228 103 149 209 97 118 129 138 142
86 86 312 150 123 114 88 26 27 340 141 80 63 345 353 359 29 8 99 116 127 115 16 147 166 153 175 140 201 253 247 187 180 187 186 184 186 167 191 184 196 193 213 240 227 128 137 148 163 169 185 208 236 202 146 184 136 100 127 132 144 145
31 348 34 351 117 131 130 116 115 344 348 65 63 27 344 47 22 57 44 121 120 118 159 158 147 143 150 142 190 206 260 299 228 185 193 210 178 178 200 190 199 205 204 227 204 145 176 161 158 179 160 201 169 271 136 212 140 141 128 142 153 156
71 357 31 332 11 56 79 120 132 136 149 172 98 79 49 69 31 335 129 66 128 135 113 30 162 120 335 221 210 179 219 223 234 198 195 223 188 185 208 186 193 211 198 205 140 187 156 195 159 175 179 197 188 228 148 247 157 161 134 147 150 153
34 30 133 311 37 49 91 109 79 59 82 82 52 26 71 110 163 218 132 110 112 137 130 170 140 97 178 227 233 208 215 233 247 269 227 218 174 202 202 188 238 220 211 170 142 210 156 201 172 181 167 194 208 213 137 143 312 205 129 148 145 155
77 356 350 77 35 108 91 28 93 143 111 61 94 164 78 27 5 302 106 65 102 103 118 130 162 183 215 112 303 256 216 213 243 252 233 266 125 215 197 194 197 225 253 183 177 156 179 188 232 165 169 174 172 154 266 152 205 264 177 135 146 157
76 16 349 94 102 53 48 83 33 43 72 104 148 72 61 80 359 6 59 125 94 87 111 129 126 164 179 178 171 206 220 209 241 266 266 251 37 341 275 210 188 201 239 230 142 125 162 226 214 225 186 182 156 168 236 168 174 242 249 130 152 159
77 69 52 34 64 58 345 84 75 72 97 137 184 163 108 93 86 342 335 359 100 89 109 131 126 147 249 237 188 155 180 224 214 92 254 323 236 215 304 296 190 178 236 213 122 111 168 160 219 254 284 179 144 180 197 205 183 250 250 176 155 156
99 78 65 37 26 49 46 160 110 93 82 282 113 166 129 148 177 191 231 17 53 110 149 132 141 124 242 236 148 96 347 21 352 235 318 301 295 183 207 247 223 171 206 157 96 134 77 169 174 359 302 282 173 179 158 228 194 206 255 263 174 151
100 84 75 58 38 75 18 25 49 73 79 299 177 203 107 177 170 192 176 212 114 92 52 110 132 154 215 317 41 83 104 119 153 316 236 254 278 253 244 273 320 227 158 132 170 176 187 175 171 194 242 277 291 170 155 198 207 186 227 254 276 169
103 103 107 101 94 73 60 59 74 51 84 298 338 20 115 26 328 159 190 184 100 80 88 270 171 141 131 154 343 126 171 176 136 170 157 173 253 264 259 260 214 331 40 227 232 148 158 209 160 242 178 236 252 265 183 184 195 194 219 210 215 263
127 127 121 119 126 143 176 139 115 131 126 39 357 13 24 194 215 327 31 85 84 107 211 179 236 136 158 139 144 216 172 111 30 254 167 206 212 235 177 79 31 345 251 233 216 223 181 187 173 182 211 223 237 241 248 180 194 196 214 226 193 209
142 131 144 151 167 149 162 146 137 137 164 147 102 65 329 295 12 34 359 54 31 22 360 84 47 73 43 110 132 149 135 145 153 222 228 212 208 178 158 129 174 236 273 241 225 248 346 310 190 199 176 193 211 231 259 250 195 187 210 215 208 208
135 142 143 171 194 155 176 176 166 158 93 68 130 106 290 17 30 295 54 28 34 31 330 23 32 38 91 48 63 66 45 125 181 227 293 267 243 195 161 133 184 237 272 309 336 308 223 177 277 277 192 181 192 189 213 252 208 185 206 229 204 208
156 168 173 208 191 190 191 93 80 41 103 82 97 108 45 49 351 40 28 34 23 356 27 29 12 14 19 92 103 113 117 199 184 181 228 268 263 267 193 176 188 202 217 299 303 309 332 346 311 292 183 160 186 184 201 226 238 217 207 215 223 197
163 172 195 207 64 49 58 118 109 92 144 100 55 48 116 77 22 77 24 20 355 3 45 22 358 21 29 7 12 330 149 167 273 278 306 306 326 312 315 332 266 178 208 213 264 278 354 4 319 322 319 223 201 184 197 197 218 230 238 204 197 222
150 197 209 73 87 78 46 29 48 50 349 81 63 43 65 71 158 127 111 118 113 332 43 25 32 57 16 4 344 346 336 251 170 207 198 224 235 268 294 287 306 305 253 223 223 191 264 66 243 231 259 287 271 218 206 201 207 213 228 214 185 204
161 157 118 114 151 108 85 31 51 80 357 88 106 73 105 143 76 52 145 144 220 84 58 4 340 296 160 198 185 256 260 293 279 166 176 208 218 233 217 240 241 260 260 242 230 185 208 171 264 318 303 32 260 236 241 247 224 215 216 220 194 204
161 151 140 185 102 111 109 113 90 97 62 1 144 176 166 157 129 115 31 60 79 60 49 352 308 328 341 12 343 326 319 292 300 311 274 192 195 210 215 200 230 250 236 256 232 216 178 144 159 166 270 236 253 201 234 216 222 219 215 215 201 194
154 151 151 134 120 119 128 135 127 183 136 229 309 92 54 78 14 43 27 108 71 57 336 337 355 11 311 328 303 358 336 324 313 307 284 282 262 212 186 200 201 220 232 227 243 224 169 163 185 196 222 313 313 287 240 273 216 239 206 223 215 206
149 153 144 147 149 151 164 173 182 178 192 198 147 93 74 42 44 60 21 33 259 128 79 353 270 292 320 309 323 315 319 317 306 270 269 312 312 289 253 201 191 205 218 227 233 227 228 190 202 206 224 226 169 161 23 336 304 268 256 227 232 216
151 155 143 160 162 180 178 192 195 187 105 51 106 89 112 105 41 103 126 65 354 6 203 171 235 277 245 278 261 267 271 274 288 305 296 252 241 262 274 277 209 188 209 214 215 230 225 208 188 211 214 221 217 221 205 276 293 309 220 280 271 238
154 155 148 161 173 189 171 161 169 159 101 141 92 126 149 115 110 100 78 28 165 205 358 340 112 179 316 322 341 352 322 316 309 297 297 286 250 257 263 249 259 218 205 208 211 215 218 204 202 212 207 224 234 242 241 238 257 280 292 227 231 265
160 153 153 159 175 189 184 152 159 171 203 114 118 147 165 157 158 95 149 102 7 356 149 231 344 337 157 267 307 281 325 318 303 296 303 304 307 304 284 294 291 252 212 221 210 211 214 206 200 204 176 221 228 243 256 254 259 269 274 295 277 218
164 154 153 161 178 183 191 148 169 184 183 142 179 165 162 123 125 163 152 131 150 206 248 140 171 277 3 328 341 343 329 322 333 335 338 314 307 304 296 287 280 288 270 216 233 221 213 217 219 213 201 193 214 218 231 254 250 240 254 258 264 286
171 156 156 166 173 179 180 152 184 177 171 162 174 148 170 135 176 160 175 159 180 148 117 40 56 168 183 281 299 294 324 315 311 306 294 300 298 294 307 306 292 273 273 237 217 227 226 221 223 220 212 205 211 210 213 220 229 218 225 233 251 266
174 163 158 168 173 170 169 178 182 160 177 170 152 167 196 166 158 164 141 164 173 146 192 149 160 205 190 189 46 325 288 274 262 265 277 286 294 305 321 317 303 284 270 265 237 212 235 219 212 221 221 213 215 214 216 224 225 226 218 227 227 248
179 171 156 167 178 167 174 182 175 161 177 170 165 187 191 154 150 170 170 193 170 192 120 199 170 199 69 88 99 281 284 289 302 298 301 299 301 308 308 300 298 297 295 293 286 247 202 222 220 216 224 221 217 220 219 213 214 212 212 206 211 247
180 174 156 165 175 171 178 179 167 166 172 161 178 188 172 174 153 195 168 165 166 204 195 150 212 162 229 79 261 309 326 319 303 304 295 292 288 281 286 288 286 294 299 298 295 283 262 232 230 240 233 216 217 219 222 216 214 212 215 209 215 219
179 173 162 165 169 176 178 174 173 170 174 164 172 176 194 188 159 178 170 170 170 172 194 218 203 192 168 192 206 281 279 286 297 296 294 295 299 299 283 265 269 286 292 290 286 289 281 263 239 219 226 234 223 222 223 218 214 220 215 223 220 219
183 171 166 161 172 176 177 175 174 176 176 172 177 175 185 186 149 167 168 186 180 190 223 248 268 209 192 187 239 262 269 266 272 280 294 296 296 299 304 307 301 289 277 278 280 273 272 274 272 254 234 233 241 238 230 224 220 221 226 226 228 227
183 167 164 167 170 174 175 175 173 180 175 181 181 181 183 168 156 156 175 177 210 210 215 211 273 292 259 235 246 253 268 290 291 299 299 300 296 293 298 300 290 281 279 278 276 282 284 274 262 261 251 224 217 227 232 229 224 220 220 222 225 228